Regional Weather Roundup
Issued by NWS Wakefield, VA

Home | Current Version | Previous Version | Graphics & Text | Print | Product List | Glossary On
Versions: 1 2 3 4 5 6 7 8 9 10 11 12 13 14 15 16 17 18 19 20 21 22 23 24 25 26 27 28 29 30 31 32 33 34 35 36 37 38 39 40 41 42 43 44 45 46 47 48 49 50
000
ASUS41 KAKQ 300314
RWRAKQ

REGIONAL WEATHER ROUNDUP
NATIONAL WEATHER SERVICE WAKEFIELD VA
1100 PM EDT SUN MAR 29 2015

Note: "fair" indicates few or no clouds below 12,000 feet with no
significant weather and/or obstructions to visibility. * = Denotes
station may not report precipitation (e.g., rain,snow,etc.),
thunder or fog.

VAZ042-051-052>054-056-300400-
NORTHERN VIRGINIA

CITY           SKY/WX    TMP DP  RH WIND       PRES   REMARKS
WASH NATIONAL  CLOUDY    43  17  35 S14       30.15F
DULLES         CLOUDY    41   7  24 S8        30.13S
FORT BELVOIR   MOCLDY    40  16  37 SE6       30.15F
QUANTICO       MOCLDY    44  23  43 S17       30.17F
FREDERICKSBRG* CLOUDY    43  12  29 S9        30.15F
STAFFORD*      CLOUDY    39   6  25 S7        30.20S
WARRENTON      MOCLDY    43  19  38 S8        30.13S
CULPEPER*      CLOUDY    45  10  24 S5        30.13F
MANASSAS*      CLOUDY    41  10  28 S8        30.14S
LEESBURG*      CLOUDY    41  14  33 S7        30.13R
WINCHESTER     CLOUDY    43  -2  15 S9        30.07S
FRONT ROYAL*   CLOUDY    43   9  24 S7        30.06F
LURAY*         CLOUDY    45  16  31 SW8       30.07F
$$

VAZ048-049-060>072-079>083-300400-
CENTRAL AND SOUTH CENTRAL VIRGINIA

CITY           SKY/WX    TMP DP  RH WIND       PRES   REMARKS
RICHMOND       CLOUDY    40  18  41 S8        30.20F
CHESTERFIELD*  NOT AVBL
PETERSBURG*    MOCLDY    39  15  37 S3        30.21F
HANOVER        MOCLDY    40  15  36 S8        30.19F
TAPPAHANNOCK*  MOCLDY    36   8  31 SE5       30.20F
QUINTON*       FAIR      37  18  44 S3        30.20F
CHARLOTTSVILLE CLOUDY    44  10  25 S14       30.12F
GORDONSVILLE*  FAIR      40  14  34 CALM      30.13F
ORANGE*        CLOUDY    43  10  26 S9        30.14F
LOUISA*        CLOUDY    43  10  26 S7        30.13F
BUMPASS*       FAIR      41   9  27 MISG      30.16F
FARMVILLE*     CLOUDY    44  16  33 S6        30.16F
CREWE*         FAIR      40  12  32 MISG      30.18F
FORT PICKETT*  FAIR      39  13  35 S8        30.19F
CHASE CITY*    FAIR      43  20  40 S3        30.20F
CLARKSVILLE*   FAIR      41  18  38 S6        30.21S
SOUTH HILL*    CLOUDY    37  17  44 S8        30.28S
LAWRENCEVILLE* FAIR      37  17  44 S5        30.22F
EMPORIA*       FAIR      34  25  69 CALM      30.26R
$$

VAZ088>098-300400-
SOUTHEAST VIRGINIA

CITY           SKY/WX    TMP DP  RH WIND       PRES   REMARKS
NORFOLK        CLEAR     36  23  59 S6        30.24F
VIRGINIA BEACH PTCLDY    39  25  57 S6        30.25F
NORFOLK NAVAL  NOT AVBL
WEST POINT*    PTCLDY    39  19  45 SE5       30.24S
SALUDA*        FAIR      34  26  71 S7        30.22F
NEWPORT NEWS   CLEAR     36  22  56 S3        30.24F
LANGLEY AFB    CLEAR     38  23  56 S6        30.23F
FORT EUSTIS    CLEAR     41  21  44 SW7       30.21F
WILLIAMSBURG*  CLEAR     45  21  39 S9        30.24S
HR EXEC AP*    FAIR      34  19  55 S5        30.26F
FRANKLIN*      PTCLDY    36  20  52 S6        30.25F
WAKEFIELD      PTCLDY    35  21  56 S3        30.24F
$$

VAZ020-022-025-037-045-300400-
WEST CENTRAL AND SOUTHWEST VIRGINIA

CITY           SKY/WX    TMP DP  RH WIND       PRES   REMARKS
STAUNTON*      CLOUDY    44   7  22 S8        30.10F
WAYNESBORO*    CLOUDY    42   7  23 S9        30.08F
HOT SPRINGS VA PTCLDY    33   5  30 S10       30.00F
LYNCHBURG      CLOUDY    43  11  27 S15       30.14F
DANVILLE       MOCLDY    44  13  28 S7        30.20F
SOUTH BOSTON*  FAIR      42  13  31 S6        30.20F
MARTINSVILLE   PTCLDY    42  13  30 S3        30.19F
ROANOKE        PTCLDY    44  11  26 S7        30.13F
BLACKSBURG     CLEAR     39  12  33 SW5       30.13F
DUBLIN*        PTCLDY    42  15  34 SW6       30.10F
MARION*        CLEAR     38  14  37 CALM      30.10F
HILLSVILLE*    CLEAR     39  13  34 S13G18    30.10F
RICHLANDS*     FAIR      45 -33   3 W7        30.07R
WISE*          CLOUDY    48  10  21 SW14G28   30.08R
ABINGDON*      CLEAR     42  17  37 CALM      30.10F
$$

MDZ021>025-VAZ099-100-300400-
SOUTHERN MARYLAND AND THE DELMARVA PENINSULA

CITY           SKY/WX    TMP DP  RH WIND       PRES   REMARKS
PATUXENT RIVER CLEAR     35  21  56 S8        30.19F
BAY BRIDGE APT   N/A     37  23  56 S12       30.16F
LEONARDTOWN    PTCLDY    34  23  64 SE6       30.20F
DOVER          CLEAR     31  16  53 S7        30.18F
GEORGETOWN     PTCLDY    31  16  54 S3        30.21F
EASTON         PTCLDY    37  22  55 S8        30.22F
CAMBRIDGE      PTCLDY    37  23  56 S7        30.20F
SALISBURY      CLEAR     30  15  53 S5        30.22F
OCEAN CITY     CLEAR     29  23  78 CALM      30.23F
WALLOPS ISLAND CLEAR     31  20  63 S7        30.24F
ACCOMACK*      CLEAR     32  21  64 S7        30.23F
$$

NCZ012>017-030>032-300400-
NORTH CENTRAL AND EASTERN NORTH CAROLINA

CITY           SKY/WX    TMP DP  RH WIND       PRES   REMARKS
ROANOKE RAPIDS FAIR      39  19  45 S6        30.25S
RALEIGH        PTCLDY    43  15  32 S9        30.25S
ELIZABETH CITY CLEAR     37  21  52 S6        30.27F
AHOSKIE*       MOCLDY    34  21  59 S5        30.27S
EDENTON*       CLEAR     40  26  56 S9        30.28S
CURRITUCK*     CLEAR     36  25  65 CALM      30.28S
KILL DEVIL HLS CLEAR     34  25  71 SE5       30.27F
MANTEO         CLEAR     36  28  74 SE6       30.29F
CAPE HATTERAS  CLEAR     38  26  62 SE7       30.31F
TARBORO*       FAIR      40  22  47 S3        30.28S
GOLDSBORO      PTCLDY    40  24  51 S3        30.27R
WASHINGTON     PTCLDY    40  19  43 S5        30.29S
GREENVILLE     PTCLDY    37  21  52 S7        30.29S
NEW BERN       CLEAR     33  25  72 S3        30.32F
WILMINGTON     CLEAR     38  31  76 S6        30.31F
$$

VAZ048-300400-
ELSEWHERE

CITY           SKY/WX    TMP DP  RH WIND       PRES   REMARKS
HARRISBURG PA  CLOUDY    39  11  31 S8        30.09F
BALTIMORE      CLOUDY    36  17  46 S3        30.14F
ANNAPOLIS      PTCLDY    38  25  59 S10       30.15F
ANDREWS AFB    MOCLDY    37  12  37 S9        30.14F
PHILADELPHIA   PTCLDY    37  15  40 S8        30.17F
HENDERSON NC   CLEAR     38  12  34 S7        30.23R
GREENSBORO     PTCLDY    43  15  32 S8        30.20F
ROCKY MOUNT    PTCLDY    40  22  48 S6        30.27S
$$

VAZ100-300400-
MARINE

STATION/POSITION TIME  TEMP    WIND        PRES    WAVE   SWELL
                       AIR SEA DIR/SP/G            HT/PER HT/PER
                 (UTC) (F)     (DEG/KT/KT) (MB)    (FT/S) (FT/S)
BRANDYWINE LGT   0200   39 40  220/ 12/ 13 1023.2F
CAPE MAY NJ      0200   39 43  220/  8/ 10 1023.1F
LEWES DE         0200   35 42  200/  4/  6 1023.5F
15NM E FENWICK I 0250   38 39              1023.3F   3/ 9
OCEAN-CITY-INLET 0200   38 40  200/  5/  6 1023.4F
WACHAPREAGUE VA  0200   39 45  190/  9/ 12 1024.3F
THOMAS POINT MD  0300                        N/A
COVE POINT MD    0200   38     190/ 14/ 15 1023.2R
SOLOMONS ISLAND  0200      43                N/A
BISHOPS HEAD MD  0200   32     180/ 11/ 12   N/A
PINEY POINT MD   0200          180/ 12/ 13   N/A
CAMBRIDGE MD     0200   36 43  170/  4/  7 1023.3F
LEWISETTA VA     0200   37 43              1023.1F
RAPPAHANNOCK LGT 0200          150/ 12/ 13 1024.3F
STINGRAY PT      0300   42 44  180/ 16/ 19   N/A     1/ 2
YORK RVR RNG VA  0200   44     180/ 14/ 15 1023.5F
YORKTOWN VA      0200   39 45  180/  5/  8 1023.9F
DOMINION TERM VA 0200   43     180/ 12/ 14 1024.2F
KIPTOPEKE VA     0200      48  170/ 14/ 16   N/A
CHES BAY BRIDGE  0200   39 43  150/ 16/ 18 1024.1F
CAPE HENRY VA    0200   37     160/  9/ 12 1023.4F
CHESAPEAKE LGHT  0200   38     180/ 16/ 16 1025.5F
WILLOUBY STN VA  0200   40     170/ 12/ 12 1024.7F
S CRANEY ISL VA  0200          140/  8/ 11 1024.4F
CAPE HENRY BUOY  0228      40                N/A     3/ 9   2/11
1ST LANDING BUOY 0300   38     180/ 12/ 14 1023.8F   1/ 3
OFFSHORE WE BUOY 0211      41                N/A     3/ 9   3/ 9
64NM E OF VA BCH 0250   42 54  240/  6/  8 1025.2F   5/10   5/10
DUCK PIER NC     0200   38 43  150/  9/ 10 1025.1F
44056 DUCK FRF   0211      43                N/A     3/11   2/11
OREGON INLET NC  0200   35 44  130/  5/  5 1026.7F
HATTERAS NC      0200   42 50  150/  2/  3 1027.1F
CAPE LOOKOUT NC  0300   45     240/  4/  5 1026.1F
$$


USA.gov is the U.S. government's official web portal to all federal, state and local government web resources and services.